User: anonymous   Login
Location: Caltech
(34.1382°N, 118.1253°W)
Time: 15:21:02
(UTC-07:00)
Language:

KITSAT 1 - Orbit

View from above orbital plane
View from above orbital plane
View from above satellite
View from above satellite

Ground track
Ground track

The orbit data is extracted from the following two-line orbital elements,

1 22077U 92052B   16205.71781061 -.00000041  00000-0  84229-4 0  9996
2 22077  66.0857 294.5858 0010277 219.4971 299.9582 12.86514107125134
Epoch (UTC): 23 July 2016 17:13:38
Eccentricity: 0.0010277
inclination: 66.0857°
perigee height: 1307 km
apogee height: 1323 km
right ascension of ascending node: 294.5858°
argument of perigee: 219.4971°
revolutions per day: 12.86514107
mean anomaly at epoch: 299.9582°
orbit number at epoch: 12513

The dashed part of the orbit path shows where the satellite is in the earth's shadow,  

DLR